This demonstration page uses our WeatherBlox Daily Observations layout. Learn more.

Left ArrowRight Arrow

Hourly Observations for July 20, 2022

Temp ( °F °C ) Dew Point ( °F °C ) Humidity (%) Winds ( mph kmh ) Pressure ( in mb ) Visibility ( mi km ) Precip ( " mm )
12:59 am 00:59 Partly Cloudy 77 25 74 23.3 90 90 Calm 29.89 1012 10 16 0.00 0.00
1:59 am 01:59 Partly Cloudy 77 25 74 23.3 90 90 Calm 29.88 1012 10 16 0.00 0.00
2:59 am 02:59 Mostly Clear 77 25 74 23.3 90 90 SSW 6 9 29.86 1011 10 16 0.00 0.00
3:59 am 03:59 Mostly Clear 77 25 73 22.8 88 88 SSW 6 9 29.86 1011 10 16 0.00 0.00
4:59 am 04:59 Mostly Clear 77 25 73 22.8 88 88 SW 7 11 29.86 1011 10 16 0.00 0.00
5:59 am 05:59 Mostly Clear 77 25 73 22.8 88 88 SW 6 9 29.87 1012 10 16 0.00 0.00
6:59 am 06:59 Sunny 77 25 73 22.8 88 88 WSW 7 11 29.88 1012 9 14 0.00 0.00
7:59 am 07:59 Mostly Sunny 81 27.2 73 22.8 77 77 W 6 9 29.88 1012 9 14 0.00 0.00
8:59 am 08:59 Sunny 81 27.2 73 22.8 77 77 VRB 6 9 29.89 1012 9 14 0.00 0.00
9:59 am 09:59 Mostly Sunny 86 30 73 22.8 65 65 VRB 6 9 29.88 1012 9 14 0.00 0.00
10:59 am 10:59 Mostly Sunny 88 31.1 73 22.8 61 61 WNW 6 9 29.88 1012 10 16 0.00 0.00
11:59 am 11:59 Mostly Sunny 90 32.2 72 22.2 56 56 WNW 9 15 29.87 1012 10 16 0.00 0.00
12:59 pm 12:59 Mostly Cloudy 91 32.8 70 21.1 50 50 VRB 7 11 29.86 1011 10 16 0.00 0.00
1:59 pm 13:59 Mostly Cloudy 93 33.9 70 21.1 47 47 SW 8 13 29.84 1011 10 16 0.00 0.00
2:59 pm 14:59 Mostly Cloudy 93 33.9 70 21.1 47 47 SW 9 15 29.83 1010 10 16 0.00 0.00
3:59 pm 15:59 Mostly Cloudy 92 33.3 70 21.1 49 49 SSW 9 15 29.81 1010 10 16 0.00 0.00
4:59 pm 16:59 Mostly Cloudy 92 33.3 70 21.1 49 49 SW 7 11 29.80 1009 10 16 0.00 0.00
5:59 pm 17:59 Mostly Cloudy 91 32.8 70 21.1 50 50 SSW 10 17 29.79 1009 10 16 0.00 0.00
6:59 pm 18:59 Mostly Cloudy 89 31.7 71 21.7 55 55 SW 10 17 29.78 1009 10 16 0.00 0.00
7:59 pm 19:59 Partly Cloudy 88 31.1 71 21.7 57 57 SSW 10 17 29.79 1009 10 16 0.00 0.00
8:59 pm 20:59 Partly Cloudy 87 30.6 72 22.2 61 61 SSW 7 11 29.80 1009 10 16 0.00 0.00
9:59 pm 21:59 Mostly Clear 84 28.9 73 22.8 70 70 SSW 10 17 29.82 1010 10 16 0.00 0.00
10:59 pm 22:59 Partly Cloudy 82 27.8 74 23.3 77 77 SSW 10 17 29.82 1010 10 16 0.00 0.00
11:59 pm 23:59 Partly Cloudy 82 27.8 74 23.3 77 77 SSW 10 17 29.81 1010 10 16 0.00 0.00

Powered by AerisWeather